PWSweather.com
Personal Weather Stations
Station Observations
WD4JKH
Forsyth, GA 31029

Forsyth, GA 31029

Lat: 33.033225, Lon: -83.927995

Elevation: 709

Station Type: Davis Vantage VUE

Latest ConditionsUpdated 5:54:39 AM EST Sunday, Feb 17, 2019
Currently Today's Max Today's Min Today's Average
Temperature 50.3°F10.2°C 51.9°F11.1°C 50.3°F10.2°C 51.1°F10.6°C
Dew Point 49.2°F9.6°C 49.6°F9.8°C 48.1°F8.9°C 49.0°F9.4°C
Winds 3.3 mph E5.3 kmh E 6.6 mph -10.6 kmh - - 3.2 mph 5.1 kmh
Wind Gusts 10.0 mph16.1 kmh 10.0 mph16.1 kmh - -
Humidity 96% 96% 89% 93%
Pressure 29.91 in1012.9 mb 29.92 in1013.2 mb 29.87 in1011.5 mb -
Hour Temp Dew Point Humidity Winds Wind Gusts Pressure Precip Precip Rate Daily Precip Total
05:54 AM 50.3°F10.2°C 49.2°F9.6°C 96% 3.3 mph E5.3 kmh E 10.0 mph16.1 kmh 29.91 in1012.9 mb 0.00 in0.0 mm 0.00 in0.0 mm 0.00 in0.0 mm
05:49 AM 50.3°F10.2°C 49.2°F9.6°C 96% 2.7 mph ENE4.3 kmh ENE 10.0 mph16.1 kmh 29.92 in1013.2 mb 0.00 in0.0 mm 0.00 in0.0 mm 0.00 in0.0 mm
05:44 AM 50.4°F10.2°C 49.3°F9.6°C 96% 2.8 mph ENE4.5 kmh ENE 10.0 mph16.1 kmh 29.90 in1012.5 mb 0.00 in0.0 mm 0.00 in0.0 mm 0.00 in0.0 mm
05:39 AM 50.4°F10.2°C 49.3°F9.6°C 96% 4.7 mph ENE7.6 kmh ENE 10.0 mph16.1 kmh 29.90 in1012.5 mb 0.00 in0.0 mm 0.00 in0.0 mm 0.00 in0.0 mm
05:34 AM 50.6°F10.3°C 49.5°F9.7°C 96% 5.3 mph E8.5 kmh E 10.0 mph16.1 kmh 29.89 in1012.2 mb 0.00 in0.0 mm 0.00 in0.0 mm 0.00 in0.0 mm
05:29 AM 50.7°F10.4°C 49.6°F9.8°C 96% 2.7 mph ENE4.3 kmh ENE 8.0 mph12.9 kmh 29.90 in1012.5 mb 0.00 in0.0 mm 0.00 in0.0 mm 0.00 in0.0 mm
05:24 AM 50.7°F10.4°C 49.6°F9.8°C 96% 4.8 mph E7.7 kmh E 8.0 mph12.9 kmh 29.90 in1012.5 mb 0.00 in0.0 mm 0.00 in0.0 mm 0.00 in0.0 mm
05:19 AM 50.7°F10.4°C 49.3°F9.6°C 95% 3.8 mph ENE6.1 kmh ENE 8.0 mph12.9 kmh 29.90 in1012.5 mb 0.00 in0.0 mm 0.00 in0.0 mm 0.00 in0.0 mm
05:14 AM 50.7°F10.4°C 49.3°F9.6°C 95% 3.4 mph ENE5.5 kmh ENE 8.0 mph12.9 kmh 29.89 in1012.2 mb 0.00 in0.0 mm 0.00 in0.0 mm 0.00 in0.0 mm
05:09 AM 50.8°F10.4°C 49.4°F9.7°C 95% 1.6 mph ENE2.6 kmh ENE 8.0 mph12.9 kmh 29.89 in1012.2 mb 0.00 in0.0 mm 0.00 in0.0 mm 0.00 in0.0 mm
05:04 AM 50.8°F10.4°C 49.4°F9.7°C 95% 3.0 mph E4.8 kmh E 8.0 mph12.9 kmh 29.88 in1011.9 mb 0.00 in0.0 mm 0.00 in0.0 mm 0.00 in0.0 mm
04:59 AM 50.8°F10.4°C 49.4°F9.7°C 95% 3.8 mph ENE6.1 kmh ENE 8.0 mph12.9 kmh 29.89 in1012.2 mb 0.00 in0.0 mm 0.00 in0.0 mm 0.00 in0.0 mm
04:54 AM 50.9°F10.5°C 49.5°F9.7°C 95% 1.8 mph ENE2.9 kmh ENE 8.0 mph12.9 kmh 29.90 in1012.5 mb 0.00 in0.0 mm 0.00 in0.0 mm 0.00 in0.0 mm
04:49 AM 50.9°F10.5°C 49.5°F9.7°C 95% 4.3 mph ENE6.9 kmh ENE 9.0 mph14.5 kmh 29.90 in1012.5 mb 0.00 in0.0 mm 0.00 in0.0 mm 0.00 in0.0 mm
04:44 AM 50.9°F10.5°C 49.5°F9.7°C 95% 2.7 mph ENE4.3 kmh ENE 9.0 mph14.5 kmh 29.89 in1012.2 mb 0.00 in0.0 mm 0.00 in0.0 mm 0.00 in0.0 mm
04:39 AM 50.9°F10.5°C 49.5°F9.7°C 95% 4.4 mph ENE7.1 kmh ENE 9.0 mph14.5 kmh 29.88 in1011.9 mb 0.00 in0.0 mm 0.00 in0.0 mm 0.00 in0.0 mm
04:34 AM 50.9°F10.5°C 49.5°F9.7°C 95% 5.2 mph ENE8.4 kmh ENE 9.0 mph14.5 kmh 29.87 in1011.5 mb 0.00 in0.0 mm 0.00 in0.0 mm 0.00 in0.0 mm
04:29 AM 50.9°F10.5°C 49.5°F9.7°C 95% 3.5 mph ENE5.6 kmh ENE 9.0 mph14.5 kmh 29.88 in1011.9 mb 0.00 in0.0 mm 0.00 in0.0 mm 0.00 in0.0 mm
04:24 AM 51.0°F10.6°C 49.6°F9.8°C 95% 4.5 mph NE7.2 kmh NE 9.0 mph14.5 kmh 29.88 in1011.9 mb 0.00 in0.0 mm 0.00 in0.0 mm 0.00 in0.0 mm
04:19 AM 51.0°F10.6°C 49.6°F9.8°C 95% 2.2 mph NE3.5 kmh NE 6.0 mph9.7 kmh 29.89 in1012.2 mb 0.00 in0.0 mm 0.00 in0.0 mm 0.00 in0.0 mm
04:14 AM 51.0°F10.6°C 49.6°F9.8°C 95% 1.8 mph NE2.9 kmh NE 6.0 mph9.7 kmh 29.88 in1011.9 mb 0.00 in0.0 mm 0.00 in0.0 mm 0.00 in0.0 mm
04:09 AM 51.0°F10.6°C 49.6°F9.8°C 95% 2.1 mph ENE3.4 kmh ENE 6.0 mph9.7 kmh 29.89 in1012.2 mb 0.00 in0.0 mm 0.00 in0.0 mm 0.00 in0.0 mm
04:04 AM 51.0°F10.6°C 49.6°F9.8°C 95% 3.3 mph NE5.3 kmh NE 6.0 mph9.7 kmh 29.88 in1011.9 mb 0.00 in0.0 mm 0.00 in0.0 mm 0.00 in0.0 mm
03:59 AM 51.0°F10.6°C 49.6°F9.8°C 95% 3.2 mph NE5.1 kmh NE 7.0 mph11.3 kmh 29.88 in1011.9 mb 0.00 in0.0 mm 0.00 in0.0 mm 0.00 in0.0 mm
03:54 AM 51.0°F10.6°C 49.6°F9.8°C 95% 2.5 mph NE4.0 kmh NE 7.0 mph11.3 kmh 29.88 in1011.9 mb 0.00 in0.0 mm 0.00 in0.0 mm 0.00 in0.0 mm
03:49 AM 51.0°F10.6°C 49.6°F9.8°C 95% 2.6 mph ENE4.2 kmh ENE 7.0 mph11.3 kmh 29.88 in1011.9 mb 0.00 in0.0 mm 0.00 in0.0 mm 0.00 in0.0 mm
03:44 AM 51.0°F10.6°C 49.6°F9.8°C 95% 2.7 mph NE4.3 kmh NE 7.0 mph11.3 kmh 29.88 in1011.9 mb 0.00 in0.0 mm 0.00 in0.0 mm 0.00 in0.0 mm
03:39 AM 51.1°F10.6°C 49.4°F9.7°C 94% 2.0 mph ENE3.2 kmh ENE 6.0 mph9.7 kmh 29.88 in1011.9 mb 0.00 in0.0 mm 0.00 in0.0 mm 0.00 in0.0 mm
03:34 AM 51.1°F10.6°C 49.4°F9.7°C 94% 3.0 mph ENE4.8 kmh ENE 6.0 mph9.7 kmh 29.88 in1011.9 mb 0.00 in0.0 mm 0.00 in0.0 mm 0.00 in0.0 mm
03:29 AM 51.1°F10.6°C 49.4°F9.7°C 94% 1.9 mph ENE3.1 kmh ENE 6.0 mph9.7 kmh 29.88 in1011.9 mb 0.00 in0.0 mm 0.00 in0.0 mm 0.00 in0.0 mm
03:24 AM 51.0°F10.6°C 49.3°F9.6°C 94% 2.6 mph ENE4.2 kmh ENE 7.0 mph11.3 kmh 29.88 in1011.9 mb 0.00 in0.0 mm 0.00 in0.0 mm 0.00 in0.0 mm
03:19 AM 51.1°F10.6°C 49.4°F9.7°C 94% 2.2 mph ENE3.5 kmh ENE 7.0 mph11.3 kmh 29.88 in1011.9 mb 0.00 in0.0 mm 0.00 in0.0 mm 0.00 in0.0 mm
03:14 AM 51.1°F10.6°C 49.4°F9.7°C 94% 2.7 mph NE4.3 kmh NE 7.0 mph11.3 kmh 29.88 in1011.9 mb 0.00 in0.0 mm 0.00 in0.0 mm 0.00 in0.0 mm
03:09 AM 51.1°F10.6°C 49.4°F9.7°C 94% 3.1 mph ENE5.0 kmh ENE 7.0 mph11.3 kmh 29.88 in1011.9 mb 0.00 in0.0 mm 0.00 in0.0 mm 0.00 in0.0 mm
03:04 AM 51.1°F10.6°C 49.4°F9.7°C 94% 3.3 mph ENE5.3 kmh ENE 7.0 mph11.3 kmh 29.88 in1011.9 mb 0.00 in0.0 mm 0.00 in0.0 mm 0.00 in0.0 mm
02:59 AM 51.1°F10.6°C 49.4°F9.7°C 94% 2.3 mph NE3.7 kmh NE 7.0 mph11.3 kmh 29.88 in1011.9 mb 0.00 in0.0 mm 0.00 in0.0 mm 0.00 in0.0 mm
02:54 AM 51.1°F10.6°C 49.4°F9.7°C 94% 2.6 mph ENE4.2 kmh ENE 7.0 mph11.3 kmh 29.88 in1011.9 mb 0.00 in0.0 mm 0.00 in0.0 mm 0.00 in0.0 mm
02:49 AM 51.1°F10.6°C 49.1°F9.5°C 93% 4.2 mph ENE6.8 kmh ENE 7.0 mph11.3 kmh 29.87 in1011.5 mb 0.00 in0.0 mm 0.00 in0.0 mm 0.00 in0.0 mm
02:44 AM 51.1°F10.6°C 49.1°F9.5°C 93% 2.1 mph NE3.4 kmh NE 8.0 mph12.9 kmh 29.88 in1011.9 mb 0.00 in0.0 mm 0.00 in0.0 mm 0.00 in0.0 mm
02:39 AM 51.1°F10.6°C 49.1°F9.5°C 93% 3.0 mph NE4.8 kmh NE 8.0 mph12.9 kmh 29.87 in1011.5 mb 0.00 in0.0 mm 0.00 in0.0 mm 0.00 in0.0 mm
02:34 AM 51.0°F10.6°C 49.0°F9.4°C 93% 3.0 mph NE4.8 kmh NE 8.0 mph12.9 kmh 29.88 in1011.9 mb 0.00 in0.0 mm 0.00 in0.0 mm 0.00 in0.0 mm
02:29 AM 51.0°F10.6°C 49.0°F9.4°C 93% 4.7 mph ENE7.6 kmh ENE 8.0 mph12.9 kmh 29.87 in1011.5 mb 0.00 in0.0 mm 0.00 in0.0 mm 0.00 in0.0 mm
02:24 AM 51.0°F10.6°C 49.0°F9.4°C 93% 3.7 mph NE6.0 kmh NE 8.0 mph12.9 kmh 29.87 in1011.5 mb 0.00 in0.0 mm 0.00 in0.0 mm 0.00 in0.0 mm
02:19 AM 50.9°F10.5°C 48.9°F9.4°C 93% 4.6 mph NE7.4 kmh NE 8.0 mph12.9 kmh 29.87 in1011.5 mb 0.00 in0.0 mm 0.00 in0.0 mm 0.00 in0.0 mm
02:14 AM 50.8°F10.4°C 48.5°F9.2°C 92% 2.8 mph NE4.5 kmh NE 8.0 mph12.9 kmh 29.88 in1011.9 mb 0.00 in0.0 mm 0.00 in0.0 mm 0.00 in0.0 mm
02:09 AM 50.9°F10.5°C 48.6°F9.2°C 92% 3.4 mph NE5.5 kmh NE 8.0 mph12.9 kmh 29.88 in1011.9 mb 0.00 in0.0 mm 0.00 in0.0 mm 0.00 in0.0 mm
02:04 AM 50.9°F10.5°C 48.4°F9.1°C 91% 3.1 mph NE5.0 kmh NE 8.0 mph12.9 kmh 29.88 in1011.9 mb 0.00 in0.0 mm 0.00 in0.0 mm 0.00 in0.0 mm
01:59 AM 51.0°F10.6°C 48.4°F9.1°C 91% 5.3 mph NE8.5 kmh NE 9.0 mph14.5 kmh 29.88 in1011.9 mb 0.00 in0.0 mm 0.00 in0.0 mm 0.00 in0.0 mm
01:54 AM 51.0°F10.6°C 48.4°F9.1°C 91% 3.9 mph NE6.3 kmh NE 9.0 mph14.5 kmh 29.87 in1011.5 mb 0.00 in0.0 mm 0.00 in0.0 mm 0.00 in0.0 mm
01:49 AM 51.0°F10.6°C 48.5°F9.2°C 91% 3.9 mph NE6.3 kmh NE 9.0 mph14.5 kmh 29.88 in1011.9 mb 0.00 in0.0 mm 0.00 in0.0 mm 0.00 in0.0 mm
01:44 AM 51.1°F10.6°C 48.2°F9.0°C 90% 3.8 mph NE6.1 kmh NE 9.0 mph14.5 kmh 29.89 in1012.2 mb 0.00 in0.0 mm 0.00 in0.0 mm 0.00 in0.0 mm
01:39 AM 51.1°F10.6°C 48.3°F9.1°C 90% 6.6 mph NE10.6 kmh NE 9.0 mph14.5 kmh 29.89 in1012.2 mb 0.00 in0.0 mm 0.00 in0.0 mm 0.00 in0.0 mm
01:34 AM 51.1°F10.6°C 48.3°F9.1°C 90% 5.5 mph NE8.9 kmh NE 8.0 mph12.9 kmh 29.89 in1012.2 mb 0.00 in0.0 mm 0.00 in0.0 mm 0.00 in0.0 mm
01:29 AM 51.2°F10.7°C 48.3°F9.1°C 90% 2.8 mph NNE4.5 kmh NNE 8.0 mph12.9 kmh 29.89 in1012.2 mb 0.00 in0.0 mm 0.00 in0.0 mm 0.00 in0.0 mm
01:24 AM 51.2°F10.7°C 48.3°F9.1°C 90% 4.4 mph NE7.1 kmh NE 8.0 mph12.9 kmh 29.89 in1012.2 mb 0.00 in0.0 mm 0.00 in0.0 mm 0.00 in0.0 mm
01:19 AM 51.2°F10.7°C 48.3°F9.1°C 90% 3.5 mph NE5.6 kmh NE 8.0 mph12.9 kmh 29.88 in1011.9 mb 0.00 in0.0 mm 0.00 in0.0 mm 0.00 in0.0 mm
01:14 AM 51.2°F10.7°C 48.3°F9.1°C 90% 3.0 mph NE4.8 kmh NE 8.0 mph12.9 kmh 29.88 in1011.9 mb 0.00 in0.0 mm 0.00 in0.0 mm 0.00 in0.0 mm
01:10 AM 51.3°F10.7°C 48.1°F8.9°C 89% 3.6 mph NNE5.8 kmh NNE 8.0 mph12.9 kmh 29.88 in1011.9 mb 0.00 in0.0 mm 0.00 in0.0 mm 0.00 in0.0 mm
01:05 AM 51.3°F10.7°C 48.4°F9.1°C 90% 2.3 mph NNE3.7 kmh NNE 7.0 mph11.3 kmh 29.88 in1011.9 mb 0.00 in0.0 mm 0.00 in0.0 mm 0.00 in0.0 mm
01:00 AM 51.4°F10.8°C 48.3°F9.1°C 89% 2.6 mph NNE4.2 kmh NNE 7.0 mph11.3 kmh 29.88 in1011.9 mb 0.00 in0.0 mm 0.00 in0.0 mm 0.00 in0.0 mm
12:55 AM 51.5°F10.8°C 48.3°F9.1°C 89% 3.1 mph NE5.0 kmh NE 7.0 mph11.3 kmh 29.88 in1011.9 mb 0.00 in0.0 mm 0.00 in0.0 mm 0.00 in0.0 mm
12:50 AM 51.6°F10.9°C 48.4°F9.1°C 89% 3.6 mph N5.8 kmh N 6.0 mph9.7 kmh 29.88 in1011.9 mb 0.00 in0.0 mm 0.00 in0.0 mm 0.00 in0.0 mm
12:45 AM 51.6°F10.9°C 48.4°F9.1°C 89% 3.4 mph N5.5 kmh N 6.0 mph9.7 kmh 29.87 in1011.5 mb 0.00 in0.0 mm 0.00 in0.0 mm 0.00 in0.0 mm
12:40 AM 51.6°F10.9°C 48.4°F9.1°C 89% 3.1 mph N5.0 kmh N 6.0 mph9.7 kmh 29.88 in1011.9 mb 0.00 in0.0 mm 0.00 in0.0 mm 0.00 in0.0 mm
12:35 AM 51.7°F10.9°C 48.5°F9.2°C 89% 2.9 mph NNE4.7 kmh NNE 6.0 mph9.7 kmh 29.87 in1011.5 mb 0.00 in0.0 mm 0.00 in0.0 mm 0.00 in0.0 mm
12:30 AM 51.7°F10.9°C 48.5°F9.2°C 89% 3.3 mph NNE5.3 kmh NNE 6.0 mph9.7 kmh 29.87 in1011.5 mb 0.00 in0.0 mm 0.00 in0.0 mm 0.00 in0.0 mm
12:25 AM 51.7°F10.9°C 48.5°F9.2°C 89% 2.8 mph N4.5 kmh N 5.0 mph8.0 kmh 29.87 in1011.5 mb 0.00 in0.0 mm 0.00 in0.0 mm 0.00 in0.0 mm
12:20 AM 51.8°F11.0°C 48.9°F9.4°C 90% 1.2 mph N1.9 kmh N 5.0 mph8.0 kmh 29.87 in1011.5 mb 0.00 in0.0 mm 0.00 in0.0 mm 0.00 in0.0 mm
12:15 AM 51.8°F11.0°C 49.0°F9.4°C 90% 1.2 mph NNW1.9 kmh NNW 5.0 mph8.0 kmh 29.87 in1011.5 mb 0.00 in0.0 mm 0.00 in0.0 mm 0.00 in0.0 mm
12:10 AM 51.8°F11.0°C 49.0°F9.4°C 90% 1.5 mph NNW2.4 kmh NNW 5.0 mph8.0 kmh 29.87 in1011.5 mb 0.00 in0.0 mm 0.00 in0.0 mm 0.00 in0.0 mm
12:05 AM 51.9°F11.1°C 49.0°F9.4°C 90% 2.1 mph NNW3.4 kmh NNW 5.0 mph8.0 kmh 29.87 in1011.5 mb 0.00 in0.0 mm 0.00 in0.0 mm 0.00 in0.0 mm
12:00 AM 51.9°F11.1°C 49.0°F9.4°C 90% 1.3 mph NNW2.1 kmh NNW 6.0 mph9.7 kmh 29.87 in1011.5 mb 0.00 in0.0 mm 0.00 in0.0 mm 0.16 in4.1 mm